Regional Weather Roundup
Issued by NWS

Home | Current Version | Previous Version | Graphics & Text | Print | Product List | Glossary On
Versions: 1 2 3 4 5 6 7 8 9 10 11 12 13 14 15 16 17 18 19 20 21 22 23 24 25 26 27 28 29 30 31 32 33 34 35 36 37 38 39 40 41 42 43 44 45 46 47 48 49 50
000
ASUS43 KOAX 222302
RWRNE

WEATHER ROUNDUP FOR NEBRASKA
NATIONAL WEATHER SERVICE OMAHA NE
600 PM CDT TUE JUL 22 2014

NOTES: SATELLITE DATA IS BEING USED TO AUGMENT CLOUD COVER ABOVE
       12000 FEET.
       "FAIR" INDICATES FEW OR NO CLOUDS BELOW 12,000 FEET WITH NO
       SIGNIFICANT WEATHER AND/OR OBSTRUCTIONS TO VISIBILITY.

  * THESE STATIONS DO NOT REPORT WEATHER SUCH AS RAIN...SNOW OR FOG.

NEZ001>004-019>022-054>056-230000-
NEBRASKA PANHANDLE

CITY           SKY/WX    TMP DP  RH WIND       PRES   REMARKS
SCOTTSBLUFF    SUNNY     92  59  33 E15       30.20F HX  91
ALLIANCE       SUNNY     93  51  23 SE12      30.22F HX  90
CHADRON        SUNNY     93  57  29 E13       30.16F HX  91
KIMBALL        SUNNY     89  50  26 SE10G16   30.26F
SIDNEY         SUNNY     91  52  26 SE13G20   30.25F
$$

NEZ057>060-069>072-079>082-230000-
SOUTHWEST NEBRASKA

CITY           SKY/WX    TMP DP  RH WIND       PRES   REMARKS
NORTH PLATTE   SUNNY     91  60  35 E12       30.17S HX  90
IMPERIAL       SUNNY     93  59  31 E12       30.18S HX  92
LEXINGTON      SUNNY     91  64  40 E13       30.16R HX  92
MCCOOK         SUNNY     92  65  40 NE16      30.14S HX  94
OGALLALA       SUNNY     90  57  32 E12       30.20S
$$

NEZ005>010-023>029-035>040-094-230000-
NORTH CENTRAL NEBRASKA

CITY           SKY/WX    TMP DP  RH WIND       PRES   REMARKS
VALENTINE      SUNNY     86  61  42 NE12      30.21F
AINSWORTH      SUNNY     82  60  47 E8        30.22F
BROKEN BOW     SUNNY     88  65  46 NE13      30.18S HX  90
O`NEILL        SUNNY     83  60  44 NE12      30.19F
ORD            SUNNY     85  65  51 E9        30.16S
THEDFORD       SUNNY     88  63  42 NE9       30.21F
$$

NEZ041-046>049-061>064-073>077-083>087-230000-
SOUTH CENTRAL NEBRASKA

CITY           SKY/WX    TMP DP  RH WIND       PRES   REMARKS
GRAND ISLAND   SUNNY     88  68  51 NE13      30.14R HX  91
AURORA         SUNNY     87  68  52 NE10      30.13R HX  91
HASTINGS       SUNNY     88  64  44 NE15      30.13S
HEBRON         SUNNY     93  74  52 N10G17    30.07S HX 103
HOLDREGE       SUNNY     89  64  43 NE14G21   30.14S
KEARNEY *      SUNNY     90  66  45 NE12      30.15S HX  92
YORK           SUNNY     86  72  62 N14       30.12R HX  92
$$

NEZ011>018-030>034-042>045-230000-
NORTHEAST NEBRASKA

CITY           SKY/WX    TMP DP  RH WIND       PRES   REMARKS
NORFOLK        MOSUNNY   83  66  56 N15       30.15R
ALBION         MOSUNNY   82  66  58 NE9       30.17S
BLAIR          SUNNY     85  60  43 N6        30.08S
COLUMBUS *     MOSUNNY   86  70  58 N12       30.14R HX  90
FREMONT        MOSUNNY   87  66  50 N8        30.11S
TEKAMAH        MOSUNNY   84  69  60 N18G25    30.10
WAYNE          PTSUNNY   83  70  65 N8        30.15R
$$

NEZ050>053-065>068-078-088>093-230000-
SOUTHEAST NEBRASKA

CITY           SKY/WX    TMP DP  RH WIND       PRES   REMARKS
LINCOLN        SUNNY     92  70  48 NE13      30.09S HX  97
OMAHA EPPLEY   MOSUNNY   89  69  51 N14       30.08R HX  93
BEATRICE       SUNNY     89  74  62 NE14G21   30.07R HX  98
FALLS CITY     SUNNY     95  79  59 N8        30.02R HX 112
NEBRASKA CITY  SUNNY     88  72  58 NE14      30.06R HX  94
PLATTSMOUTH    SUNNY     88  71  57 N9        30.07S HX  94
$$

NEZ044-045-051>053-067-230000-
OMAHA AREA

CITY           SKY/WX    TMP DP  RH WIND       PRES   REMARKS
OMAHA EPPLEY   MOSUNNY   89  69  51 N14       30.08R HX  93
BLAIR          SUNNY     85  60  43 N6        30.08S
FREMONT        MOSUNNY   87  66  50 N8        30.11S
MILLARD        SUNNY     89  69  51 N6        30.08R HX  93
OFFUTT AFB     SUNNY     89  73  60 NE7       30.05F HX  96
PLATTSMOUTH    SUNNY     88  71  57 N9        30.07S HX  94
WAHOO          FAIR      87  68  52 N7        30.09S HX  91
$$



USA.gov is the U.S. government's official web portal to all federal, state and local government web resources and services.